[[{"header":{"parameterUnit":"m.s-1","parameterCategory":2,"la1":30.2992,"la2":30.254,"lo1":-89.0895,"lo2":-89.0443,"dy":0.0025,"dx":0.0025,"nx":19,"ny":19,"refTime":"2026-04-23T09:00:00:Z","depth":"0","parameterNumber":2,"parameterNumberName":"U-component_of_CURRENTS"},"data":[0,0,0,0.2563,0.2563,0.2571,0.2571,0.2636,0.2637,0,0,0,0,0,0,0,0,0,0,0,0.2558,0.2558,0.2563,0.2563,0.2571,0.2571,0.2636,0.2637,0,0,0,0,0,0,0,0,0,0,0,0.2558,0.2558,0.2558,0.2563,0.2571,0.2571,0.2636,0.2616,0,0,0,0,0,0,0,0,0,0,0.2601,0.2591,0.2558,0.2558,0.2564,0.2571,0.2571,0.2614,0.2617,0.2649,0,0.2649,0,0.2648,0.2642,0.2643,0,0,0,0.2561,0.2589,0.259,0.2558,0.2564,0.2571,0.2567,0.2615,0.2619,0.2653,0.2649,0.2652,0.265,0.2643,0.2643,0.2747,0.2748,0,0,0.2561,0.2563,0.2588,0.2592,0.2565,0.2567,0.2567,0.2616,0.2622,0.265,0.2653,0.2651,0.2644,0.2644,0.2747,0.2747,0,0,0,0.2561,0.2562,0.2561,0.259,0.2589,0.2567,0.2567,0.262,0.2619,0.2654,0.2651,0.2644,0.2645,0.2746,0.2747,0.2864,0,0,0,0.2561,0.2563,0.2561,0.2562,0.2588,0.2598,0.257,0.2615,0.2621,0.2651,0.2644,0.2646,0.2746,0.2747,0.286,0.2914,0,0,0,0.2558,0.2563,0.2562,0.2562,0.2567,0.2597,0.2598,0.2616,0.262,0.2643,0.2646,0.2745,0.2746,0.2856,0.2907,0.2966,0,0,0,0.256,0.2578,0.2562,0.2592,0.2566,0.2604,0.2598,0.2628,0.265,0.2645,0.2746,0.2747,0.2855,0.2902,0.2961,0.2849,0.2861,0,0,0.2588,0.2582,0.2602,0.2589,0.2634,0.2603,0.2673,0.2694,0.2679,0.2732,0.2734,0.2861,0.2906,0.2965,0.2915,0.2925,0,0,0,0.2616,0.2633,0.2644,0.2665,0.2676,0.2717,0.2719,0.2747,0.2806,0.2697,0.2852,0.2876,0.291,0.2832,0.284,0.2725,0.2752,0.2752,0.2752,0.2663,0.2675,0.271,0.2731,0.2761,0.2802,0.286,0.2896,0.2866,0.2914,0.2965,0.308,0.2997,0.3002,0.2887,0.2954,0.2955,0.2955,0.2955,0.2709,0.2718,0.2756,0.2788,0.2832,0.289,0.3001,0.3021,0.3135,0.3073,0.31,0.295,0.3018,0.2891,0.2963,0.2961,0.296,0.296,0.2959,0.2717,0.2717,0.2739,0.2784,0.287,0.294,0.3062,0.3163,0.3225,0.3294,0.3168,0.3163,0.3057,0.3292,0.3292,0.3293,0.3293,0.3294,0.3294,0.2687,0.2712,0.2725,0.2783,0.282,0.2922,0.3107,0.3191,0.3274,0.3286,0.3284,0.307,0.3182,0.3174,0.3302,0.3301,0.33,0.3299,0.3298,0.2671,0.2671,0.2697,0.2719,0.2795,0.2822,0.3014,0.3134,0.3254,0.3265,0.3121,0.3273,0.3222,0.3212,0.3203,0.3332,0.3332,0.3332,0.3332,0.2646,0.2652,0.2667,0.2684,0.2723,0.2779,0.2777,0.2878,0.2998,0.3,0.3075,0.2953,0.2956,0.2883,0.288,0.2862,0.2901,0.2901,0.29,0.2633,0.2651,0.2639,0.2649,0.2677,0.268,0.2573,0.2506,0.2694,0.2876,0.2949,0.2968,0.2781,0.2796,0.2669,0.2674,0.2639,0,0]},{"header":{"parameterUnit":"m.s-1","parameterCategory":2,"la1":30.2992,"la2":30.254,"lo1":-89.0895,"lo2":-89.0443,"dy":0.0025,"dx":0.0025,"nx":19,"ny":19,"refTime":"2026-04-23T09:00:00:Z","depth":"0","parameterNumber":3,"parameterNumberName":"V-component_of_CURRENTS"},"data":[0,0,0,0.0363,0.0364,0.0384,0.0384,0.0377,0.0377,0,0,0,0,0,0,0,0,0,0,0,0.0352,0.0352,0.0363,0.0364,0.0384,0.0384,0.0377,0.0377,0,0,0,0,0,0,0,0,0,0,0,0.0352,0.0352,0.0352,0.0364,0.0384,0.0384,0.0377,0.0368,0,0,0,0,0,0,0,0,0,0,0.0352,0.0349,0.0352,0.0352,0.0364,0.0384,0.0384,0.0368,0.0369,0.036,0,0.0366,0,0.0375,0.0376,0.0376,0,0,0,0.0358,0.0349,0.0356,0.0352,0.0364,0.0384,0.0373,0.0369,0.037,0.0361,0.0366,0.0366,0.0375,0.0376,0.0376,0.041,0.0411,0,0,0.0357,0.0353,0.0355,0.0356,0.0372,0.0373,0.0374,0.037,0.037,0.0366,0.0366,0.0375,0.0376,0.0376,0.041,0.041,0,0,0,0.0358,0.0352,0.0359,0.0356,0.0365,0.0373,0.0375,0.037,0.0373,0.0366,0.0375,0.0376,0.0376,0.0409,0.041,0.0537,0,0,0,0.0357,0.0353,0.0359,0.0356,0.0365,0.0373,0.0375,0.0373,0.0373,0.0375,0.0376,0.0376,0.0409,0.041,0.0532,0.0632,0,0,0,0.035,0.0352,0.0356,0.0356,0.0368,0.0373,0.0376,0.0373,0.0379,0.0376,0.0376,0.0408,0.0409,0.0528,0.0623,0.0702,0,0,0,0.0343,0.0369,0.0356,0.0393,0.0368,0.0416,0.0376,0.0403,0.0408,0.0376,0.0409,0.041,0.0527,0.0618,0.0696,0.0744,0.0774,0,0,0.0376,0.0372,0.0398,0.0388,0.0457,0.0413,0.0481,0.0463,0.0418,0.0405,0.0406,0.0534,0.0623,0.0701,0.0805,0.0834,0,0,0,0.0411,0.0436,0.0453,0.0489,0.0505,0.0548,0.0517,0.0513,0.0518,0.0426,0.052,0.0572,0.0617,0.0633,0.0656,0.0592,0.0415,0.0415,0.0415,0.0456,0.0482,0.0548,0.0586,0.0617,0.0638,0.0677,0.0661,0.0586,0.0607,0.0663,0.0799,0.0816,0.0833,0.0766,0.0625,0.0625,0.0626,0.0626,0.0544,0.06,0.0636,0.0709,0.0748,0.0801,0.0838,0.0815,0.0871,0.0772,0.0807,0.0752,0.0866,0.0785,0.0634,0.0632,0.0631,0.0631,0.063,0.0593,0.063,0.0667,0.0782,0.0891,0.0933,0.1092,0.1078,0.1016,0.1069,0.105,0.1047,0.0988,0.1067,0.1068,0.1068,0.1069,0.107,0.107,0.0632,0.0677,0.0768,0.0879,0.0981,0.1133,0.1257,0.132,0.131,0.1228,0.1227,0.1035,0.0934,0.0931,0.1083,0.108,0.1079,0.1078,0.1077,0.0719,0.0729,0.0874,0.0973,0.1212,0.1418,0.1508,0.1613,0.1617,0.1609,0.1318,0.1296,0.1268,0.1247,0.1251,0.1477,0.1477,0.1477,0.1477,0.0774,0.0789,0.0996,0.1174,0.1397,0.1564,0.1809,0.1842,0.1666,0.1537,0.1446,0.1331,0.1317,0.1283,0.1262,0.1261,0.1484,0.1484,0.1484,0.0848,0.0904,0.1064,0.1229,0.149,0.1723,0.194,0.199,0.1687,0.1474,0.1357,0.1357,0.1168,0.1152,0.1072,0.1047,0.1034,0,0]}],[{"header":{"parameterUnit":"m.s-1","parameterCategory":2,"la1":30.2992,"la2":30.254,"lo1":-89.0895,"lo2":-89.0443,"dy":0.0025,"dx":0.0025,"nx":19,"ny":19,"refTime":"2026-04-23T09:00:00:Z","depth":"2","parameterNumber":2,"parameterNumberName":"U-component_of_CURRENTS"},"data":[0,0,0,0.2478,0.2478,0.2507,0.2507,0.2579,0.258,0,0,0,0,0,0,0,0,0,0,0,0.2467,0.2467,0.2477,0.2478,0.2507,0.2507,0.2579,0.258,0,0,0,0,0,0,0,0,0,0,0,0.2467,0.2467,0.2468,0.2478,0.2507,0.2507,0.2579,0.2548,0,0,0,0,0,0,0,0,0,0,0.2516,0.2505,0.2467,0.2468,0.2479,0.2507,0.2507,0.2546,0.255,0.2577,0,0.2583,0,0.2586,0.2586,0.2586,0,0,0,0.2476,0.2502,0.2507,0.2468,0.2479,0.2507,0.2493,0.2548,0.2552,0.2583,0.2584,0.2587,0.2587,0.2587,0.2587,0.2689,0.269,0,0,0.2475,0.2476,0.2504,0.251,0.2489,0.2492,0.2494,0.255,0.2559,0.2584,0.2588,0.2589,0.2587,0.2588,0.2689,0.2689,0,0,0,0.2472,0.2475,0.2478,0.2507,0.2511,0.2493,0.2495,0.2556,0.2557,0.2589,0.2589,0.2588,0.2589,0.2688,0.2689,0.2796,0,0,0,0.247,0.2474,0.2477,0.2479,0.251,0.253,0.25,0.2552,0.2559,0.2589,0.2588,0.259,0.2688,0.2689,0.2792,0.2846,0,0,0,0.2465,0.2473,0.2476,0.2479,0.2492,0.2529,0.2532,0.2553,0.256,0.2586,0.259,0.2687,0.2689,0.2789,0.2839,0.2895,0,0,0,0.2466,0.2488,0.2476,0.2506,0.2492,0.2534,0.2532,0.2569,0.2595,0.2588,0.2688,0.2689,0.2787,0.2835,0.2891,0.2735,0.2742,0,0,0.2496,0.2492,0.251,0.25,0.2548,0.2529,0.2599,0.2629,0.2621,0.267,0.2673,0.2793,0.2838,0.2894,0.2798,0.2803,0,0,0,0.2521,0.2535,0.2547,0.2572,0.2589,0.2634,0.2647,0.2678,0.274,0.2641,0.2786,0.281,0.2843,0.2739,0.2743,0.2694,0.2694,0.2694,0.2694,0.2558,0.2572,0.2604,0.2626,0.2661,0.2715,0.2772,0.2814,0.2793,0.2841,0.2892,0.3,0.289,0.2892,0.288,0.2881,0.2881,0.2882,0.2882,0.2599,0.2603,0.2642,0.2678,0.2727,0.2792,0.2899,0.2927,0.3043,0.2991,0.3016,0.2849,0.2902,0.289,0.2889,0.2887,0.2887,0.2886,0.2885,0.2594,0.2595,0.2626,0.2681,0.2769,0.2843,0.2955,0.3068,0.3127,0.3195,0.3051,0.3046,0.3072,0.3199,0.32,0.32,0.3201,0.3201,0.3201,0.2559,0.259,0.261,0.2682,0.2723,0.2827,0.3015,0.3086,0.3155,0.3158,0.3155,0.3107,0.3097,0.3089,0.3209,0.3208,0.3207,0.3206,0.3206,0.2544,0.2544,0.2576,0.2605,0.2696,0.2687,0.289,0.2973,0.3098,0.3084,0.3124,0.3123,0.3073,0.3065,0.3055,0.316,0.316,0.316,0.316,0.2516,0.2521,0.2538,0.2563,0.2593,0.2628,0.2561,0.2624,0.2805,0.2847,0.2861,0.2732,0.2741,0.2664,0.2665,0.2644,0.2642,0.2641,0.264,0.2513,0.2515,0.2508,0.2518,0.2532,0.2484,0.23,0.2159,0.2303,0.2619,0.276,0.3127,0.2968,0.2971,0.2872,0.2867,0.2841,0,0]},{"header":{"parameterUnit":"m.s-1","parameterCategory":2,"la1":30.2992,"la2":30.254,"lo1":-89.0895,"lo2":-89.0443,"dy":0.0025,"dx":0.0025,"nx":19,"ny":19,"refTime":"2026-04-23T09:00:00:Z","depth":"2","parameterNumber":3,"parameterNumberName":"V-component_of_CURRENTS"},"data":[0,0,0,0.029,0.0291,0.0317,0.0317,0.0318,0.0318,0,0,0,0,0,0,0,0,0,0,0,0.0276,0.0277,0.029,0.0291,0.0317,0.0317,0.0318,0.0318,0,0,0,0,0,0,0,0,0,0,0,0.0276,0.0277,0.0277,0.0291,0.0317,0.0317,0.0318,0.0305,0,0,0,0,0,0,0,0,0,0,0.0283,0.0278,0.0277,0.0277,0.0291,0.0317,0.0317,0.0305,0.0306,0.0299,0,0.0305,0,0.0315,0.0318,0.0318,0,0,0,0.0285,0.0277,0.0285,0.0277,0.0291,0.0317,0.0304,0.0306,0.0307,0.03,0.0305,0.0306,0.0315,0.0318,0.0318,0.0357,0.0357,0,0,0.0284,0.0279,0.0285,0.0286,0.0301,0.0303,0.0304,0.0307,0.0307,0.0305,0.0306,0.0316,0.0318,0.0318,0.0356,0.0357,0,0,0,0.0283,0.0278,0.0287,0.0286,0.0295,0.0304,0.0306,0.0307,0.0311,0.0306,0.0316,0.0318,0.0318,0.0356,0.0357,0.0465,0,0,0,0.0282,0.0278,0.0286,0.0283,0.0296,0.0307,0.0306,0.031,0.0311,0.0316,0.0318,0.0318,0.0355,0.0356,0.0461,0.0548,0,0,0,0.0275,0.0277,0.0281,0.0283,0.0298,0.0307,0.0311,0.0311,0.0317,0.0318,0.0318,0.0355,0.0356,0.0457,0.054,0.0602,0,0,0,0.0267,0.0291,0.0281,0.0318,0.0297,0.0348,0.0311,0.0341,0.0348,0.0318,0.0356,0.0357,0.0456,0.0536,0.0597,0.0617,0.0641,0,0,0.0297,0.0294,0.0319,0.0312,0.038,0.0344,0.0409,0.0397,0.0358,0.035,0.0351,0.0462,0.054,0.0601,0.0678,0.07,0,0,0,0.033,0.0354,0.0371,0.0407,0.0427,0.0469,0.0447,0.0442,0.0448,0.0368,0.0453,0.0499,0.0534,0.0535,0.0553,0.0362,0.0361,0.0361,0.0361,0.0367,0.0394,0.0456,0.0495,0.0528,0.0553,0.0585,0.0572,0.0511,0.0529,0.0579,0.0694,0.0695,0.0709,0.0547,0.0547,0.0548,0.0548,0.0548,0.0448,0.0497,0.0534,0.0606,0.0643,0.0698,0.0727,0.0707,0.0754,0.0673,0.07,0.0639,0.0735,0.0557,0.0555,0.0554,0.0553,0.0552,0.0552,0.0487,0.0519,0.0562,0.0672,0.0774,0.0817,0.0951,0.0943,0.0878,0.0922,0.0892,0.089,0.0782,0.0921,0.0922,0.0922,0.0923,0.0923,0.0924,0.0515,0.0562,0.0648,0.076,0.0855,0.0992,0.1105,0.1145,0.1122,0.1045,0.1044,0.0821,0.0808,0.0803,0.0934,0.0932,0.0931,0.093,0.0929,0.059,0.06,0.0732,0.0826,0.1054,0.1216,0.1306,0.1371,0.1371,0.1341,0.1097,0.1089,0.1063,0.1046,0.1046,0.1233,0.1233,0.1233,0.1233,0.0632,0.0647,0.0832,0.0999,0.1196,0.1335,0.1507,0.1508,0.1392,0.1269,0.1267,0.1171,0.1159,0.113,0.1111,0.1108,0.1312,0.1312,0.1312,0.0697,0.0737,0.0881,0.1039,0.1271,0.1446,0.158,0.155,0.133,0.1313,0.1253,0.1243,0.1091,0.1076,0.1015,0.0992,0.098,0,0]}],[{"header":{"parameterUnit":"m.s-1","parameterCategory":2,"la1":30.2992,"la2":30.254,"lo1":-89.0895,"lo2":-89.0443,"dy":0.0025,"dx":0.0025,"nx":19,"ny":19,"refTime":"2026-04-23T09:00:00:Z","depth":"4","parameterNumber":2,"parameterNumberName":"U-component_of_CURRENTS"},"data":[0,0,0,0.1558,0.1562,0.1727,0.1728,0.1896,0.1898,0,0,0,0,0,0,0,0,0,0,0,0.1506,0.1507,0.1558,0.1562,0.1727,0.1728,0.1896,0.1898,0,0,0,0,0,0,0,0,0,0,0,0.1506,0.1507,0.1509,0.1562,0.1727,0.1728,0.1896,0.1783,0,0,0,0,0,0,0,0,0,0,0.1629,0.1592,0.1507,0.1509,0.1563,0.1727,0.1728,0.1778,0.179,0.1807,0,0.1838,0,0.1866,0.1907,0.1908,0,0,0,0.1569,0.1582,0.1618,0.1509,0.1565,0.1727,0.1655,0.1785,0.1799,0.1822,0.184,0.1847,0.1869,0.1908,0.1909,0.2053,0.2053,0,0,0.156,0.1545,0.1609,0.1626,0.1615,0.1649,0.166,0.1794,0.1815,0.1841,0.1851,0.1872,0.1909,0.191,0.2052,0.2053,0,0,0,0.1529,0.1539,0.1573,0.1619,0.165,0.1654,0.1666,0.181,0.1819,0.1853,0.1874,0.191,0.1912,0.2052,0.2053,0.2106,0,0,0,0.1524,0.152,0.1568,0.1563,0.1648,0.174,0.1678,0.181,0.1826,0.1873,0.191,0.1913,0.2051,0.2052,0.2103,0.2115,0,0,0,0.1497,0.1518,0.1537,0.1561,0.1628,0.1738,0.1756,0.1814,0.1838,0.1908,0.1913,0.2051,0.2052,0.2101,0.2111,0.2146,0,0,0,0.1476,0.1501,0.1537,0.1576,0.1627,0.1716,0.1756,0.1844,0.1905,0.1911,0.2051,0.2053,0.21,0.2109,0.2144,0.1875,0,0,0,0.1484,0.1502,0.1521,0.1557,0.1627,0.1693,0.1795,0.1895,0.1927,0.2004,0.2008,0.2104,0.2111,0.2146,0.1947,0,0,0,0,0.1508,0.1522,0.1551,0.1607,0.1679,0.178,0.1874,0.1929,0.2039,0.1969,0.2113,0.2116,0.2136,0.1973,0.2058,0.2058,0.2058,0.2058,0.2058,0.149,0.1527,0.1569,0.1635,0.171,0.1852,0.194,0.2034,0.2065,0.2125,0.2167,0.2238,0.2068,0.2181,0.2181,0.2181,0.2182,0.2182,0.2182,0.1482,0.1491,0.1577,0.1636,0.1754,0.1861,0.2028,0.2094,0.2228,0.2224,0.2242,0.2049,0.2187,0.2186,0.2185,0.2185,0.2184,0.2184,0.2184,0.1439,0.1447,0.1514,0.1615,0.1743,0.1892,0.2019,0.2164,0.2262,0.2314,0.2144,0.2274,0.2261,0.2336,0.2336,0.2337,0.2337,0.2337,0.2337,0.136,0.1422,0.1467,0.1592,0.1668,0.1811,0.2036,0.2115,0.2247,0.2169,0.2338,0.229,0.2284,0.2269,0.2341,0.234,0.234,0.2339,0.2339,0.1276,0.1332,0.1375,0.1444,0.1588,0.1672,0.1907,0.1998,0.2062,0.2043,0.2085,0.2096,0.205,0.2051,0.2025,0.2027,0.2024,0.2021,0,0.1212,0.1242,0.128,0.1336,0.1405,0.157,0.1607,0.173,0.185,0.1787,0.2053,0.2097,0.2104,0.2047,0.2043,0.2009,0,0,0,0.1161,0.118,0.1171,0.1238,0.13,0.1416,0.1602,0.159,0.1832,0.1816,0.194,0.1961,0.2179,0.2351,0.2307,0.2301,0.2274,0,0]},{"header":{"parameterUnit":"m.s-1","parameterCategory":2,"la1":30.2992,"la2":30.254,"lo1":-89.0895,"lo2":-89.0443,"dy":0.0025,"dx":0.0025,"nx":19,"ny":19,"refTime":"2026-04-23T09:00:00:Z","depth":"4","parameterNumber":3,"parameterNumberName":"V-component_of_CURRENTS"},"data":[0,0,0,0.0208,0.0208,0.0243,0.0244,0.0273,0.0273,0,0,0,0,0,0,0,0,0,0,0,0.0193,0.0193,0.0208,0.0208,0.0243,0.0244,0.0273,0.0273,0,0,0,0,0,0,0,0,0,0,0,0.0193,0.0193,0.0194,0.0209,0.0243,0.0244,0.0273,0.025,0,0,0,0,0,0,0,0,0,0,0.0218,0.0208,0.0193,0.0194,0.0209,0.0243,0.0244,0.0249,0.0251,0.0253,0,0.0259,0,0.0268,0.0275,0.0275,0,0,0,0.0207,0.0206,0.0215,0.0194,0.0209,0.0243,0.0227,0.0251,0.0253,0.0256,0.0259,0.0261,0.0269,0.0275,0.0275,0.033,0.033,0,0,0.0206,0.0199,0.0213,0.0217,0.0219,0.0226,0.0228,0.0252,0.0255,0.0259,0.0261,0.0269,0.0275,0.0275,0.0329,0.033,0,0,0,0.0201,0.0198,0.0207,0.0215,0.0224,0.0227,0.023,0.0253,0.0257,0.0262,0.0269,0.0275,0.0276,0.0329,0.0329,0.0375,0,0,0,0.0199,0.0195,0.0206,0.0203,0.0224,0.0242,0.023,0.0255,0.0258,0.0269,0.0275,0.0276,0.0328,0.0329,0.0373,0.0399,0,0,0,0.0192,0.0195,0.0199,0.0203,0.0219,0.0242,0.0246,0.0256,0.0263,0.0275,0.0276,0.0328,0.0329,0.0371,0.0396,0.0405,0,0,0,0.0184,0.02,0.0199,0.0227,0.0218,0.0269,0.0246,0.0281,0.0296,0.0275,0.0328,0.0329,0.037,0.0394,0.0403,0.0417,0,0,0,0.0201,0.0201,0.0221,0.0222,0.0275,0.0264,0.032,0.0324,0.0309,0.0318,0.0319,0.0373,0.0395,0.0404,0.0474,0,0,0,0,0.0226,0.0242,0.0259,0.0289,0.0317,0.035,0.0357,0.0354,0.0365,0.0322,0.038,0.0393,0.0397,0.04,0.0334,0.0334,0.0334,0.0334,0.0334,0.024,0.0266,0.0311,0.0349,0.0383,0.0412,0.043,0.0427,0.041,0.0419,0.0435,0.0481,0.0488,0.0436,0.0436,0.0436,0.0437,0.0437,0.0437,0.0283,0.0313,0.0354,0.0407,0.0442,0.049,0.0509,0.0497,0.0507,0.0482,0.0483,0.0455,0.0441,0.0441,0.044,0.0439,0.0439,0.0439,0.0438,0.0296,0.0314,0.0353,0.0432,0.0501,0.0545,0.0608,0.0597,0.0555,0.0563,0.0552,0.051,0.05,0.0561,0.0561,0.0562,0.0562,0.0562,0.0562,0.0286,0.0328,0.0381,0.0465,0.0529,0.0612,0.0669,0.0678,0.064,0.0614,0.058,0.0523,0.0519,0.0507,0.0565,0.0564,0.0564,0.0564,0.0563,0.0302,0.032,0.04,0.0464,0.0607,0.0673,0.0733,0.0744,0.0739,0.0696,0.0627,0.0624,0.0605,0.0599,0.0588,0.0673,0.0674,0.0674,0,0.0304,0.0319,0.0427,0.053,0.0644,0.0715,0.077,0.0779,0.071,0.0696,0.0692,0.0613,0.061,0.0587,0.0583,0.057,0,0,0,0.0319,0.0351,0.0427,0.0532,0.0668,0.0737,0.0786,0.0782,0.0725,0.0734,0.0684,0.0682,0.064,0.0573,0.0535,0.053,0.0508,0,0]}]]